CDT,Max TemperatureF,Mean TemperatureF,Min TemperatureF,Max Dew PointF,MeanDew PointF,Min DewpointF,Max Humidity, Mean Humidity, Min Humidity, Max Sea Level PressureIn, Mean Sea Level PressureIn, Min Sea Level PressureIn, Max VisibilityMiles, Mean VisibilityMiles, Min VisibilityMiles, Max Wind SpeedMPH, Mean Wind SpeedMPH, Max Gust SpeedMPH,PrecipitationIn, CloudCover, Events, WindDirDegrees
2014-4-1,58,51,44,44,36,28,80,62,44,30.07,29.98,29.85,10,10,7,18,10,25,0.00,6,,26
2014-4-2,83,66,49,67,58,41,93,74,55,29.86,29.73,29.60,10,10,9,26,14,33,0.00,7,,150
2014-4-3,84,65,46,68,61,38,84,57,30,29.91,29.61,29.56,10,10,10,28,17,34,0.00,6,Thunderstorm,217
2014-4-4,60,49,38,38,31,25,85,56,27,30.18,30.09,29.92,10,10,10,26,11,35,0.00,1,,340
2014-4-5,65,49,32,37,33,29,89,58,27,30.19,30.10,29.99,10,10,7,20,6,24,0.00,4,,130
2014-4-6,55,49,42,46,42,36,93,72,50,30.06,29.94,29.82,10,10,6,16,6,19,0.09,7,Rain,125
2014-4-7,66,56,45,50,46,43,100,72,44,29.93,29.84,29.79,10,8,5,22,7,27,0.16,7,Rain,294
2014-4-8,66,54,41,43,33,23,86,53,20,30.14,30.03,29.93,10,10,10,35,13,45,0.00,3,,325
2014-4-9,79,58,36,46,35,29,70,47,23,30.19,30.05,29.86,10,10,10,25,11,33,0.00,2,,177
2014-4-10,87,72,57,54,48,44,64,44,23,29.91,29.80,29.74,10,10,7,26,14,34,0.00,5,,196
2014-4-11,80,64,48,60,53,42,83,67,51,30.01,29.93,29.88,10,10,10,22,10,26,0.00,3,,127
2014-4-12,84,74,63,62,59,56,87,65,42,29.89,29.75,29.62,10,10,10,32,19,43,0.00,6,,164
2014-4-13,83,63,43,63,58,39,86,66,45,29.82,29.57,29.40,10,9,2,37,22,47,0.31,7,Rain-Thunderstorm,199
2014-4-14,50,43,36,37,31,18,82,62,42,30.25,30.06,29.84,10,9,3,30,21,38,T,6,Rain-Snow,341
2014-4-15,63,47,30,27,24,21,78,49,20,30.26,30.18,30.05,10,10,10,15,6,21,0.00,2,,179
2014-4-16,66,56,46,35,31,27,60,44,28,30.05,29.99,29.91,10,10,10,35,18,47,0.00,5,,167
2014-4-17,63,52,40,44,40,35,92,70,48,30.26,30.18,30.05,10,10,5,15,7,17,T,7,Rain,358
2014-4-18,75,56,36,47,41,35,100,66,31,30.30,30.21,30.11,10,7,2,10,5,15,0.00,1,,37
2014-4-19,79,64,48,50,47,43,86,61,35,30.18,30.11,30.04,10,10,10,18,10,25,0.00,4,,161
2014-4-20,76,66,55,61,55,50,87,69,50,30.12,30.07,30.00,10,10,10,18,9,23,T,7,Rain,165
2014-4-21,73,64,55,63,61,57,100,84,68,30.03,29.99,29.94,10,7,2,16,4,20,0.77,7,Rain-Thunderstorm,154
2014-4-22,76,64,51,56,46,36,100,64,27,30.11,30.02,29.93,10,10,5,12,6,16,0.00,1,Fog,28
2014-4-23,84,67,49,58,50,42,77,57,37,29.95,29.83,29.68,10,10,10,25,13,32,T,3,,158
2014-4-24,74,61,47,64,57,43,93,67,40,29.92,29.71,29.59,10,10,4,36,18,43,0.11,6,Rain-Thunderstorm,232
2014-4-25,80,63,45,45,42,38,93,58,23,30.00,29.91,29.81,10,10,10,23,11,29,0.00,3,,172
2014-4-26,86,71,56,66,54,41,74,59,43,29.82,29.70,29.54,10,10,10,33,18,43,0.00,7,,155
2014-4-27,85,72,59,69,58,38,84,52,20,29.54,29.42,29.29,10,9,0,35,17,48,0.64,6,Fog-Rain-Thunderstorm,184
2014-4-28,74,64,54,46,41,36,66,46,25,29.62,29.50,29.33,10,10,6,29,17,37,T,3,Rain,263
2014-4-29,58,52,46,42,39,37,71,59,47,29.94,29.74,29.61,10,10,10,25,16,32,T,6,,289
2014-4-30,61,52,43,41,35,29,76,56,36,30.08,30.03,29.94,10,10,10,24,14,31,0.00,5,,305